| time (UTC) | temp F | wind direction | speed MPH | gust MPH | rain 1hr in | rain 24hr in | rain mn in | humidity % | barometer mb |
| 20260502190058 | 65 | 120 | 0.0 | 4.0 | 0.00 | 0.00 | 0.00 | 86 | 1015.2 |
| 20260502184555 | 65 | 135 | 0.0 | 1.0 | 0.00 | 0.00 | 0.00 | 86 | 1015.1 |
| 20260502183057 | 65 | 117 | 0.0 | 3.0 | 0.00 | 0.00 | 0.00 | 86 | 1015.6 |
| 20260502181552 | 65 | 115 | 0.0 | 5.0 | 0.00 | 0.00 | 0.00 | 86 | 1015.7 |
| 20260502163048 | 67 | 153 | 0.0 | 6.0 | 0.00 | 0.00 | 0.00 | 83 | 1016.0 |
| 20260502161552 | 67 | 129 | 0.0 | 8.0 | 0.00 | 0.00 | 0.00 | 83 | 1016.1 |
| 20260502151545 | 68 | 167 | 1.0 | 7.0 | 0.00 | 0.00 | 0.00 | 81 | 1016.3 |
| 20260502123023 | 68 | 180 | 0.0 | 9.0 | 0.00 | 0.00 | 0.00 | 82 | 1018.0 |
| 20260502121518 | 68 | 153 | 0.0 | 3.0 | 0.00 | 0.00 | 0.00 | 83 | 1018.3 |
| 20260502114525 | 68 | 150 | 0.0 | 8.0 | 0.00 | 0.03 | 0.00 | 81 | 1018.3 |
| 20260502113019 | 69 | 150 | 0.0 | 7.0 | 0.00 | 0.03 | 0.00 | 80 | 1018.4 |
| 20260502111514 | 68 | 143 | 0.0 | 7.0 | 0.00 | 0.03 | 0.00 | 82 | 1018.5 |
| 20260502110015 | 69 | 176 | 0.0 | 8.0 | 0.00 | 0.03 | 0.00 | 81 | 1018.6 |
| 20260502104518 | 69 | 192 | 0.0 | 6.0 | 0.00 | 0.13 | 0.00 | 80 | 1018.8 |
| 20260502103010 | 69 | 123 | 0.0 | 2.0 | 0.00 | 0.13 | 0.00 | 79 | 1018.8 |
| 20260502101510 | 69 | 86 | 0.0 | 5.0 | 0.00 | 0.13 | 0.00 | 79 | 1018.8 |
| 20260502091503 | 68 | 107 | 0.0 | 0.0 | 0.00 | 0.13 | 0.00 | 80 | 1019.0 |
| 20260502080105 | 67 | 135 | 0.0 | 3.0 | 0.00 | 0.13 | 0.00 | 81 | 1019.0 |
| 20260502070058 | 65 | 100 | 0.0 | 0.0 | 0.00 | 0.13 | 0.00 | 86 | 1019.0 |
| 20260502064612 | 65 | 115 | 0.0 | 0.0 | 0.00 | 0.13 | 0.00 | 87 | 1019.2 |
| 20260502063054 | 64 | 115 | 0.0 | 0.0 | 0.00 | 0.13 | 0.00 | 88 | 1019.5 |
| 20260502061544 | 64 | 114 | 0.0 | 0.0 | 0.00 | 0.13 | 0.00 | 89 | 1019.3 |
| 20260502060046 | 63 | 114 | 0.0 | 0.0 | 0.00 | 0.13 | 0.00 | 89 | 1019.2 |
| 20260502054541 | 63 | 115 | 0.0 | 0.0 | 0.00 | 0.13 | 0.00 | 90 | 1019.0 |
| 20260502053036 | 0 | 0.0 | 0.0 | 0.00 | 0.13 | 0.00 | 1018.9 | ||
| 20260502051535 | 0 | 0.0 | 0.0 | 0.00 | 0.13 | 0.00 | 1018.8 | ||
| 20260502050034 | 0 | 0.0 | 0.0 | 0.00 | 0.13 | 0.00 | 1018.8 | ||
| 20260502044523 | 0 | 0.0 | 0.0 | 0.00 | 0.13 | 0.00 | 1018.9 | ||
| 20260502043019 | 0 | 0.0 | 0.0 | 0.00 | 0.13 | 0.00 | 1018.8 | ||
| 20260502041515 | 0 | 0.0 | 0.0 | 0.00 | 0.13 | 0.00 | 1018.9 | ||
| 20260502040018 | 63 | 114 | 0.0 | 0.0 | 0.00 | 0.13 | 0.00 | 90 | 1019.1 |
| 20260502034511 | 63 | 114 | 0.0 | 0.0 | 0.00 | 0.13 | 0.00 | 91 | 1019.2 |
| 20260502033019 | 64 | 114 | 0.0 | 0.0 | 0.00 | 0.13 | 0.00 | 91 | 1019.3 |
| 20260502031510 | 63 | 114 | 0.0 | 0.0 | 0.00 | 0.13 | 0.00 | 91 | 1019.4 |
| 20260502030010 | 63 | 110 | 0.0 | 0.0 | 0.00 | 0.13 | 0.00 | 91 | 1019.1 |
| 20260502024512 | 64 | 113 | 0.0 | 0.0 | 0.00 | 0.13 | 0.00 | 91 | 1019.1 |
| 20260502023007 | 64 | 107 | 0.0 | 0.0 | 0.00 | 0.13 | 0.00 | 91 | 1019.2 |
| 20260502021505 | 64 | 117 | 0.0 | 0.0 | 0.00 | 0.13 | 0.00 | 91 | 1019.2 |
| 20260502020003 | 64 | 110 | 0.0 | 0.0 | 0.00 | 0.13 | 0.00 | 92 | 1019.4 |
| 20260502014501 | 64 | 110 | 0.0 | 0.0 | 0.00 | 0.13 | 0.00 | 91 | 1019.5 |
| 20260502013102 | 64 | 96 | 0.0 | 0.0 | 0.00 | 0.13 | 0.00 | 91 | 1019.6 |
| 20260502011603 | 64 | 103 | 0.0 | 0.0 | 0.00 | 0.13 | 0.00 | 91 | 1019.7 |
| 20260502010109 | 64 | 106 | 0.0 | 0.0 | 0.00 | 0.13 | 0.00 | 91 | 1019.9 |
| 20260502004557 | 64 | 118 | 0.0 | 0.0 | 0.00 | 0.13 | 0.00 | 91 | 1019.9 |
| 20260502003054 | 64 | 110 | 0.0 | 0.0 | 0.00 | 0.13 | 0.00 | 91 | 1019.9 |
| 20260502001551 | 64 | 116 | 0.0 | 0.0 | 0.00 | 0.13 | 0.00 | 91 | 1020.3 |
| 20260502000051 | 64 | 116 | 0.0 | 0.0 | 0.00 | 0.13 | 0.00 | 91 | 1020.5 |
| 20260501234548 | 64 | 115 | 0.0 | 0.0 | 0.00 | 0.13 | 0.00 | 91 | 1020.6 |
| 20260501233048 | 64 | 116 | 0.0 | 0.0 | 0.00 | 0.13 | 0.00 | 91 | 1020.7 |
| 20260501231547 | 64 | 115 | 0.0 | 0.0 | 0.00 | 0.13 | 0.00 | 91 | 1020.8 |
| 20260501230047 | 64 | 117 | 0.0 | 0.0 | 0.00 | 0.13 | 0.00 | 91 | 1020.6 |
| 20260501224546 | 64 | 111 | 0.0 | 0.0 | 0.00 | 0.13 | 0.00 | 91 | 1020.7 |
| 20260501223045 | 64 | 119 | 0.0 | 0.0 | 0.00 | 0.13 | 0.00 | 91 | 1020.6 |
| 20260501221543 | 64 | 101 | 0.0 | 1.0 | 0.00 | 0.13 | 0.00 | 91 | 1020.7 |
| 20260501220041 | 64 | 100 | 0.0 | 0.0 | 0.00 | 0.13 | 0.00 | 90 | 1021.0 |
| 20260501214540 | 64 | 100 | 0.0 | 0.0 | 0.00 | 0.13 | 0.13 | 90 | 1021.1 |
| 20260501213042 | 64 | 142 | 0.0 | 0.0 | 0.00 | 0.13 | 0.13 | 90 | 1020.9 |
| 20260501211543 | 64 | 141 | 0.0 | 0.0 | 0.00 | 0.13 | 0.13 | 90 | 1021.0 |
| 20260501210039 | 64 | 120 | 0.0 | 0.0 | 0.00 | 0.13 | 0.13 | 90 | 1021.1 |
| 20260501204547 | 64 | 120 | 0.0 | 0.0 | 0.00 | 0.13 | 0.13 | 89 | 1021.2 |
| 20260501203034 | 64 | 162 | 0.0 | 0.0 | 0.00 | 0.13 | 0.13 | 89 | 1020.9 |
| 20260501201532 | 64 | 141 | 0.0 | 0.0 | 0.00 | 0.13 | 0.13 | 89 | 1020.7 |
| 20260501200034 | 65 | 129 | 0.0 | 0.0 | 0.00 | 0.13 | 0.13 | 88 | 1020.6 |
| 20260501194530 | 65 | 89 | 0.0 | 0.0 | 0.00 | 0.13 | 0.13 | 88 | 1020.4 |
| 20260501193027 | 65 | 118 | 0.0 | 1.0 | 0.00 | 0.13 | 0.13 | 87 | 1020.1 |
| 20260501191534 | 65 | 104 | 0.0 | 0.0 | 0.00 | 0.13 | 0.13 | 87 | 1020.0 |